User: anonymous
Location: Natural Bridges National Monument
(37.6093°N, 109.9767°W)
Time: 15:37:03
(UTC-06:00)
Language:

USA 32 - Orbit

View from above orbital plane
View from above orbital plane
View from above satellite
View from above satellite

Ground track
Ground track

The orbit data is extracted from the following two-line orbital elements,

1 19460U 88078A   14209.95276262 0.00000090  00000-0  32813-4 0    09
2 19460  84.9906 113.9031 0002668 354.4292   5.5707 14.33188373    02
Epoch (UTC): 28 July 2014 22:51:58
Eccentricity: 0.0002668
inclination: 84.9906°
perigee height: 779 km
apogee height: 783 km
right ascension of ascending node: 113.9031°
argument of perigee: 354.4292°
revolutions per day: 14.33188373
mean anomaly at epoch: 5.5707°
orbit number at epoch: 0

The dashed part of the orbit path shows where the satellite is in the earth's shadow,  

DLR